Temp
-7 -7 -7 -8 -8 -8 -8 -8 -9 -9 -9 -9 -9 -9 -10 -10 -10 -11 -12 -12 -13 -15 -16 -17 -18 -20 -21 -22 -22 -22 -22 -23 -23 -23 -23 -23 -22 -22 -22 -22 -23 -22 -21 -19
-7 -7 -8 -9 -9 -9 -9 -9 -9 -10 -10 -10 -10 -10 -11 -11 -11 -12 -13 -14 -16 -16 -17 -19 -21 -22 -22 -23 -23 -24 -25 -25 -25 -25 -25 -25 -25 -25 -25 -25 -25 -25 -24 -22
-8 -8 -9 -9 -9 -10 -10 -10 -10 -10 -10 -10 -11 -11 -11 -11 -12 -13 -15 -16 -18 -19 -20 -22 -23 -24 -25 -25 -25 -26 -26 -26 -26 -27 -26 -26 -27 -26 -26 -26 -26 -27 -27 -27
-9 -9 -9 -9 -9 -10 -10 -10 -10 -10 -10 -11 -11 -11 -11 -12 -13 -15 -16 -18 -20 -22 -23 -24 -26 -26 -26 -26 -26 -26 -27 -27 -28 -28 -28 -28 -28 -28 -29 -28 -29 -29 -29 -28
-9 -9 -9 -9 -10 -10 -10 -10 -10 -10 -10 -11 -11 -12 -12 -13 -14 -16 -18 -19 -21 -23 -25 -26 -26 -26 -26 -27 -27 -27 -27 -27 -27 -28 -28 -28 -28 -29 -29 -29 -29 -29 -29 -29
-9 -9 -9 -9 -10 -10 -10 -10 -10 -9 -10 -10 -11 -12 -13 -14 -15 -17 -19 -21 -24 -26 -26 -27 -27 -27 -27 -27 -27 -27 -26 -26 -27 -27 -27 -27 -27 -28 -28 -28 -28 -28 -28 -28
-9 -10 -10 -10 -10 -10 -10 -10 -9 -9 -10 -11 -12 -13 -14 -16 -17 -20 -21 -25 -27 -27 -27 -27 -27 -26 -26 -27 -26 -26 -26 -27 -27 -26 -26 -27 -26 -26 -27 -27 -27 -27 -27 -28
-10 -10 -10 -10 -10 -10 -10 -10 -11 -12 -12 -11 -12 -14 -15 -17 -19 -21 -24 -26 -26 -26 -27 -26 -26 -27 -27 -27 -27 -27 -27 -27 -27 -26 -26 -26 -26 -26 -26 -27 -27 -27 -27 -27
-9 -10 -10 -10 -10 -11 -10 -11 -11 -11 -12 -12 -13 -16 -16 -18 -19 -21 -24 -25 -26 -26 -26 -26 -26 -27 -27 -27 -27 -27 -27 -27 -26 -25 -25 -26 -26 -26 -26 -26 -26 -26 -26 -26
-10 -10 -10 -10 -10 -11 -11 -12 -12 -12 -13 -14 -14 -17 -18 -19 -20 -24 -25 -26 -26 -26 -27 -26 -27 -27 -27 -27 -26 -26 -25 -24 -24 -24 -25 -25 -26 -25 -25 -25 -25 -25 -25 -25
-11 -11 -11 -11 -11 -11 -11 -12 -12 -12 -14 -15 -15 -18 -19 -20 -25 -25 -26 -27 -27 -26 -26 -26 -26 -26 -26 -25 -24 -23 -23 -23 -23 -23 -23 -23 -23 -23 -23 -23 -23 -23 -24 -25
-12 -12 -11 -11 -11 -11 -12 -12 -12 -13 -14 -16 -16 -18 -20 -22 -25 -26 -26 -26 -26 -26 -26 -26 -25 -24 -24 -22 -22 -22 -22 -22 -23 -23 -23 -22 -22 -22 -22 -22 -22 -22 -23 -23
-12 -12 -12 -12 -11 -11 -12 -12 -13 -13 -15 -16 -16 -19 -19 -22 -25 -26 -26 -26 -26 -26 -25 -24 -24 -22 -22 -22 -22 -22 -22 -22 -21 -21 -22 -22 -22 -21 -21 -21 -22 -22 -22 -22
-12 -12 -12 -12 -12 -12 -13 -13 -13 -14 -15 -16 -17 -18 -20 -23 -24 -24 -25 -25 -25 -25 -23 -23 -22 -22 -21 -22 -22 -22 -22 -21 -21 -21 -20 -20 -20 -20 -20 -20 -20 -21 -22 -22
-12 -12 -12 -12 -12 -13 -13 -14 -14 -14 -15 -16 -18 -20 -21 -25 -24 -25 -25 -25 -24 -22 -22 -21 -21 -21 -22 -21 -21 -21 -21 -21 -20 -20 -19 -19 -19 -19 -19 -20 -20 -20 -22 -22
-12 -12 -12 -12 -12 -13 -13 -14 -14 -15 -15 -16 -18 -19 -22 -25 -25 -25 -25 -24 -22 -21 -21 -21 -21 -21 -21 -20 -20 -20 -20 -20 -19 -19 -19 -19 -19 -19 -19 -19 -20 -20 -21 -22
-12 -12 -12 -12 -12 -13 -13 -13 -15 -15 -16 -16 -18 -18 -20 -24 -24 -24 -24 -22 -21 -21 -20 -20 -21 -21 -20 -20 -20 -19 -19 -19 -19 -18 -18 -18 -18 -19 -19 -19 -19 -19 -20 -20
-12 -12 -12 -12 -12 -12 -13 -13 -14 -16 -16 -17 -19 -19 -21 -24 -24 -24 -24 -22 -22 -21 -20 -20 -20 -20 -20 -20 -19 -19 -19 -18 -18 -18 -17 -18 -18 -18 -18 -18 -18 -18 -19 -20
-12 -12 -12 -12 -12 -13 -13 -13 -14 -15 -15 -16 -18 -19 -22 -23 -24 -24 -24 -23 -22 -21 -20 -20 -20 -20 -19 -19 -19 -19 -18 -18 -18 -17 -17 -17 -18 -18 -18 -18 -18 -18 -18 -19
-12 -13 -13 -12 -13 -13 -13 -14 -15 -15 -15 -16 -18 -19 -22 -22 -23 -23 -23 -21 -21 -21 -20 -20 -20 -19 -19 -19 -19 -19 -18 -18 -17 -17 -17 -18 -17 -17 -17 -18 -18 -17 -18 -19
-12 -13 -13 -13 -13 -13 -13 -15 -15 -15 -15 -16 -18 -19 -22 -23 -23 -23 -23 -23 -22 -20 -20 -20 -20 -19 -19 -19 -19 -19 -19 -19 -19 -19 -18 -18 -18 -17 -18 -18 -18 -17 -17 -18
-12 -13 -13 -13 -12 -13 -13 -15 -16 -15 -16 -16 -18 -19 -23 -23 -23 -23 -23 -22 -21 -20 -20 -20 -19 -19 -19 -19 -19 -19 -19 -19 -19 -20 -19 -19 -19 -19 -19 -20 -19 -19 -19 -19
-12 -13 -13 -13 -13 -13 -15 -16 -16 -16 -16 -16 -19 -19 -22 -23 -23 -23 -23 -22 -20 -20 -21 -20 -19 -19 -19 -19 -19 -19 -19 -19 -19 -19 -20 -20 -20 -20 -20 -20 -19 -19 -19 -19
-13 -13 -13 -13 -13 -14 -15 -16 -16 -16 -16 -17 -19 -20 -22 -22 -23 -23 -23 -22 -20 -20 -20 -20 -20 -19 -19 -19 -19 -19 -19 -19 -19 -20 -20 -20 -20 -20 -20 -19 -19 -20 -20 -20
-13 -13 -13 -13 -13 -14 -16 -16 -16 -16 -16 -17 -19 -20 -22 -23 -23 -23 -23 -21 -20 -20 -20 -20 -19 -19 -19 -19 -19 -19 -19 -19 -19 -20 -20 -20 -20 -20 -20 -20 -20 -20 -20 -21
-13 -13 -13 -13 -13 -15 -16 -16 -16 -17 -17 -17 -19 -20 -22 -23 -23 -22 -22 -21 -20 -20 -20 -20 -20 -19 -19 -19 -19 -19 -20 -19 -20 -20 -20 -20 -20 -20 -20 -20 -20 -20 -20 -20
Height
5891 5890 5887 5885 5881 5878 5875 5870 5865 5858 5850 5844 5837 5829 5821 5809 5797 5783 5769 5756 5740 5724 5709 5695 5680 5665 5651 5640 5630 5618 5608 5601 5591 5585 5577 5571 5566 5566 5568 5566 5564 5561 5561 5563
5890 5887 5885 5881 5878 5875 5870 5863 5857 5850 5842 5835 5826 5815 5805 5794 5781 5766 5750 5733 5717 5705 5691 5674 5658 5644 5629 5614 5602 5591 5582 5573 5564 5555 5549 5542 5538 5538 5536 5537 5534 5532 5531 5532
5888 5885 5882 5878 5874 5870 5862 5857 5850 5843 5835 5826 5815 5804 5794 5779 5763 5747 5732 5714 5697 5679 5663 5651 5638 5622 5610 5598 5586 5576 5566 5557 5548 5538 5531 5525 5519 5516 5515 5512 5511 5510 5508 5509
5886 5881 5878 5874 5869 5864 5858 5852 5844 5835 5824 5814 5802 5788 5777 5762 5748 5729 5712 5697 5677 5658 5648 5630 5617 5609 5598 5588 5577 5567 5557 5547 5538 5529 5520 5513 5505 5502 5500 5496 5496 5496 5495 5494
5882 5878 5873 5869 5865 5860 5854 5845 5836 5825 5814 5801 5788 5774 5763 5748 5731 5713 5696 5680 5657 5641 5625 5618 5608 5598 5588 5576 5566 5555 5546 5538 5530 5521 5512 5504 5497 5492 5488 5487 5485 5485 5484 5482
5878 5874 5870 5865 5860 5853 5846 5837 5826 5815 5803 5793 5777 5763 5751 5732 5715 5699 5680 5659 5640 5629 5622 5613 5602 5590 5580 5568 5557 5547 5538 5530 5520 5509 5503 5494 5487 5482 5478 5476 5472 5471 5471 5470
5875 5871 5866 5861 5855 5848 5838 5828 5817 5807 5795 5783 5767 5753 5736 5718 5699 5678 5654 5639 5631 5621 5612 5601 5589 5580 5571 5559 5546 5535 5527 5520 5510 5502 5494 5485 5478 5472 5467 5464 5461 5459 5457 5456
5873 5869 5861 5855 5849 5839 5829 5819 5806 5792 5785 5774 5758 5745 5729 5708 5688 5668 5654 5638 5629 5618 5607 5594 5580 5568 5557 5547 5537 5527 5518 5509 5500 5491 5486 5478 5470 5464 5458 5453 5448 5444 5441 5439
5866 5863 5856 5849 5841 5832 5822 5811 5801 5790 5778 5762 5747 5735 5719 5699 5680 5663 5649 5638 5626 5613 5602 5587 5575 5562 5549 5538 5528 5517 5508 5499 5489 5481 5475 5469 5463 5455 5449 5443 5437 5432 5428 5424
5863 5857 5850 5842 5834 5826 5815 5804 5792 5779 5765 5753 5734 5720 5703 5683 5662 5651 5640 5629 5617 5606 5592 5579 5567 5554 5544 5533 5520 5510 5501 5491 5481 5473 5465 5459 5453 5446 5441 5435 5429 5424 5420 5417
5856 5851 5845 5837 5829 5820 5810 5799 5785 5773 5760 5742 5722 5712 5689 5667 5648 5640 5631 5623 5611 5598 5585 5572 5562 5553 5541 5530 5519 5509 5500 5490 5481 5471 5462 5454 5447 5441 5435 5429 5424 5419 5414 5410
5851 5845 5839 5832 5823 5814 5803 5792 5781 5768 5755 5739 5719 5704 5683 5661 5648 5638 5630 5621 5610 5598 5583 5571 5561 5550 5540 5531 5521 5511 5501 5491 5481 5471 5462 5453 5445 5439 5432 5426 5420 5415 5410 5405
5845 5838 5832 5825 5819 5808 5798 5788 5776 5764 5750 5735 5716 5704 5685 5663 5650 5643 5630 5619 5607 5594 5583 5573 5563 5553 5543 5534 5524 5514 5503 5492 5480 5471 5461 5452 5444 5437 5430 5424 5418 5413 5407 5402
5840 5834 5828 5821 5813 5803 5793 5782 5770 5756 5744 5728 5709 5694 5679 5660 5650 5642 5628 5617 5604 5594 5585 5576 5567 5556 5546 5537 5525 5514 5502 5491 5481 5471 5462 5454 5447 5440 5433 5427 5420 5413 5408 5403
5835 5829 5824 5816 5808 5799 5788 5777 5764 5750 5736 5722 5706 5687 5668 5652 5644 5635 5625 5617 5607 5598 5588 5579 5570 5560 5551 5539 5527 5517 5506 5495 5484 5475 5466 5460 5454 5448 5441 5434 5428 5419 5412 5406
5830 5825 5819 5812 5804 5794 5783 5771 5759 5744 5733 5720 5701 5688 5668 5656 5646 5637 5630 5621 5609 5598 5591 5583 5575 5566 5554 5541 5531 5521 5510 5501 5492 5484 5477 5470 5464 5458 5450 5443 5437 5430 5422 5414
5827 5821 5814 5807 5798 5789 5781 5767 5756 5741 5727 5714 5699 5682 5668 5662 5648 5635 5628 5622 5612 5605 5597 5589 5578 5568 5557 5546 5536 5526 5517 5510 5501 5493 5487 5481 5475 5469 5461 5454 5448 5443 5436 5428
5823 5816 5810 5802 5793 5785 5775 5765 5752 5738 5725 5710 5695 5681 5661 5657 5649 5639 5631 5623 5617 5611 5602 5594 5585 5576 5565 5555 5546 5536 5527 5519 5511 5503 5495 5490 5484 5477 5471 5464 5461 5456 5450 5442
5819 5812 5804 5796 5788 5781 5769 5760 5750 5738 5725 5709 5697 5681 5664 5660 5656 5649 5640 5631 5621 5614 5605 5598 5591 5582 5573 5563 5554 5545 5537 5529 5522 5514 5507 5500 5494 5488 5481 5474 5470 5465 5462 5456
5814 5807 5801 5792 5784 5775 5765 5755 5745 5734 5721 5707 5693 5680 5666 5656 5652 5644 5636 5629 5626 5619 5611 5606 5599 5591 5583 5573 5564 5556 5548 5539 5532 5525 5517 5510 5504 5498 5491 5485 5480 5473 5470 5466
5810 5803 5796 5788 5780 5772 5761 5750 5741 5732 5722 5705 5690 5678 5662 5655 5648 5641 5637 5634 5628 5623 5617 5611 5606 5598 5590 5583 5575 5568 5560 5551 5544 5537 5531 5524 5515 5508 5503 5497 5491 5485 5481 5476
5806 5798 5792 5784 5775 5768 5757 5749 5741 5730 5716 5702 5688 5678 5662 5658 5652 5645 5641 5637 5633 5628 5624 5618 5612 5605 5598 5592 5586 5579 5573 5565 5558 5550 5544 5536 5530 5523 5518 5514 5507 5502 5497 5491
5802 5795 5788 5781 5772 5763 5754 5745 5736 5725 5714 5700 5688 5676 5662 5657 5654 5647 5643 5639 5636 5631 5626 5622 5616 5610 5605 5599 5594 5588 5582 5577 5569 5563 5558 5551 5545 5539 5533 5529 5522 5516 5510 5504
5798 5791 5784 5776 5768 5759 5751 5743 5733 5721 5710 5697 5685 5675 5662 5658 5654 5649 5646 5641 5639 5635 5631 5627 5621 5616 5611 5607 5601 5595 5590 5585 5579 5574 5568 5563 5558 5552 5548 5543 5536 5530 5522 5516
5794 5787 5780 5772 5764 5755 5747 5739 5729 5719 5708 5693 5682 5673 5662 5658 5653 5649 5647 5644 5641 5639 5635 5631 5626 5621 5617 5613 5609 5603 5598 5594 5589 5584 5579 5575 5570 5565 5560 5556 5550 5544 5537 5532
5790 5784 5777 5769 5760 5753 5745 5737 5727 5719 5707 5693 5683 5670 5661 5660 5655 5651 5647 5646 5645 5643 5639 5635 5630 5626 5623 5620 5616 5611 5607 5604 5598 5594 5590 5586 5582 5577 5573 5568 5564 5559 5553 5549
Wind_Speed
18 20 24 26 28 30 34 37 38 41 43 44 43 48 56 64 68 73 76 79 82 82 82 86 86 85 84 86 92 92 90 90 90 93 97 97 97 95 90 88 88 92 94 96
16 21 21 24 29 32 34 37 40 43 47 52 52 51 57 63 69 73 79 82 82 86 88 90 87 85 85 84 82 77 74 73 75 77 79 80 81 83 85 86 88 88 88 88
16 18 23 27 29 29 33 37 40 44 48 52 55 60 63 69 76 79 81 84 86 88 86 82 78 64 55 53 52 53 54 51 50 54 54 55 57 59 59 60 61 58 55 57
16 20 24 28 28 31 35 39 47 50 56 59 64 70 73 76 79 82 84 85 82 83 79 64 53 52 50 50 51 51 49 47 46 45 45 46 45 42 37 39 40 42 47 49
20 23 27 28 30 34 39 49 54 56 62 69 71 75 79 80 82 86 85 87 85 76 56 51 51 52 53 53 53 52 51 50 48 46 45 45 43 42 41 38 41 42 42 42
23 26 28 31 34 39 47 54 58 65 69 72 74 77 80 83 90 88 88 84 69 51 48 49 51 52 51 51 50 47 45 42 44 45 42 44 45 42 40 38 38 37 37 37
24 27 30 34 37 45 54 59 64 67 69 72 78 77 80 86 87 88 86 63 46 48 51 54 56 54 52 48 49 47 46 42 46 43 41 40 37 37 38 38 40 41 42 42
28 31 35 38 43 51 57 61 62 66 71 75 80 78 81 88 89 81 64 46 43 48 53 56 55 55 52 51 48 41 38 43 40 37 36 33 34 33 36 39 38 38 38 38
36 34 36 41 47 51 56 59 63 67 72 78 81 79 84 88 89 76 51 43 47 51 54 53 54 55 53 46 42 40 45 46 43 37 34 33 33 36 34 33 30 26 26 28
36 36 38 43 47 51 56 59 63 68 73 75 81 81 84 93 89 61 47 51 55 58 58 56 58 53 44 43 46 45 42 40 40 37 34 33 33 34 32 27 22 23 21 20
36 37 40 43 47 51 56 59 65 70 72 74 83 80 87 87 64 55 52 55 59 60 59 58 49 44 45 42 39 42 46 47 46 45 43 40 37 33 29 27 25 24 20 17
38 40 41 43 48 53 55 61 65 69 72 73 80 82 87 70 54 52 53 56 58 58 54 45 44 42 39 43 47 49 49 50 46 41 36 32 28 28 26 24 23 21 21 23
40 40 41 45 50 53 56 59 64 69 70 74 82 82 85 67 48 48 53 57 58 53 43 39 38 42 45 47 52 48 44 45 41 34 29 30 31 31 28 27 26 27 29 25
38 39 40 45 49 52 55 58 64 68 71 76 81 85 80 57 50 50 55 57 52 43 40 40 42 43 49 50 52 56 53 47 42 39 31 32 32 29 27 27 28 26 20 20
38 39 41 45 48 51 55 59 63 67 72 75 81 85 68 46 52 54 57 53 41 37 38 43 42 46 51 56 57 51 48 46 44 40 34 30 32 35 36 36 35 32 25 20
40 40 41 44 46 50 54 59 62 67 70 75 81 84 58 42 47 50 50 43 39 38 41 40 41 47 54 53 49 50 48 43 40 40 35 33 36 37 40 41 37 44 45 37
39 39 41 43 46 50 56 61 60 65 71 77 81 85 69 38 44 49 47 42 39 38 37 38 43 51 52 51 48 48 41 38 41 39 38 34 36 36 39 42 43 46 45 49
39 39 40 43 48 52 57 58 61 64 71 77 79 83 61 39 41 43 41 41 37 36 32 36 43 48 47 46 44 39 35 38 42 40 38 35 34 34 35 40 41 39 41 45
38 38 42 45 48 52 56 59 60 65 70 76 77 78 51 37 31 30 29 34 34 34 33 39 44 44 43 43 40 37 33 34 39 43 42 39 38 31 33 35 38 38 36 31
41 40 43 45 49 52 56 57 59 65 68 74 78 77 45 40 33 29 33 30 29 32 29 35 39 38 38 42 40 37 34 32 34 38 39 36 35 38 38 38 38 37 37 31
44 42 43 46 49 51 56 56 58 63 68 74 78 75 47 34 40 36 33 31 29 29 27 32 35 32 35 41 39 37 34 36 41 44 44 45 46 45 44 42 43 41 41 43
45 43 44 47 50 53 55 53 56 61 69 75 76 75 41 32 33 29 30 27 22 21 21 27 30 26 28 31 34 35 36 35 40 49 49 50 48 46 44 44 44 44 43 41
43 42 44 46 49 50 50 51 55 61 68 73 76 75 40 32 33 28 24 22 18 19 23 24 25 23 24 23 29 29 32 33 37 45 43 42 39 38 36 35 35 36 37 38
42 42 44 48 48 49 48 50 55 61 66 72 74 75 41 33 33 27 21 18 15 14 17 21 22 19 21 22 28 30 30 30 38 38 36 36 36 38 38 37 37 38 39 40
41 44 46 46 48 47 47 50 54 59 66 73 75 77 46 30 30 26 17 15 12 13 14 18 20 18 17 18 27 29 28 30 33 33 34 34 34 36 38 38 39 42 47 49
42 43 46 49 48 45 46 50 53 58 65 71 73 69 44 29 28 25 16 13 9 10 13 17 18 18 15 19 25 24 27 28 31 31 31 32 33 36 37 39 42 44 46 49
Wind_Direction
357 350 347 342 342 340 339 338 336 332 331 329 327 320 317 316 315 311 310 309 307 305 306 305 304 300 295 295 298 296 292 287 280 277 279 279 279 276 272 271 270 271 272 272
338 339 341 343 344 342 342 341 338 331 325 326 326 326 323 322 318 316 314 312 309 309 308 305 302 304 303 298 295 295 294 291 289 287 283 282 282 280 279 276 274 276 276 274
342 344 345 346 342 343 340 339 332 330 334 333 329 330 331 329 323 319 315 313 315 312 308 308 307 306 310 312 311 311 311 310 306 304 300 295 290 286 284 281 280 278 278 276
339 344 345 337 338 342 338 335 337 336 338 337 338 335 336 330 325 321 319 320 317 310 313 314 320 319 320 319 317 316 317 319 319 317 315 310 304 297 290 282 270 271 272 271
339 343 339 337 336 338 339 340 339 340 340 343 341 334 335 330 327 323 323 321 317 319 324 325 324 324 323 320 318 317 317 317 314 311 311 311 308 301 295 285 279 276 271 268
339 343 340 338 340 340 340 338 340 340 342 342 338 335 335 331 326 326 327 323 325 327 328 327 326 324 324 320 318 315 317 321 321 318 313 304 301 299 297 295 291 285 278 273
341 340 338 339 341 338 339 338 340 341 342 342 337 336 334 331 331 332 330 332 333 331 331 330 330 328 325 326 323 318 317 322 315 313 319 318 315 308 306 300 294 288 283 278
334 337 337 337 338 339 339 341 342 341 343 342 336 337 334 333 335 333 334 338 337 335 334 334 333 332 329 327 331 326 324 325 324 312 313 316 318 310 307 307 301 295 288 280
330 335 335 337 340 341 341 343 341 342 341 341 338 338 336 336 337 336 343 343 341 341 338 334 337 334 333 335 336 328 327 328 328 329 319 314 311 312 319 319 316 311 306 301
329 332 335 337 338 342 342 343 342 343 342 340 337 339 339 339 339 345 348 350 347 343 343 343 341 344 348 343 341 341 345 352 351 348 340 334 328 329 333 330 329 328 319 311
327 331 334 335 339 343 343 343 344 343 342 340 337 343 343 343 340 350 353 350 345 347 347 344 349 352 353 355 358 358 356 356 358 358 355 353 350 351 351 351 351 347 339 323
327 328 331 336 339 343 342 344 344 342 343 341 339 347 347 343 345 351 352 347 349 349 350 358 359 4 6 5 6 8 11 9 8 8 4 356 344 338 335 338 340 340 342 340
331 330 332 337 341 342 343 344 343 343 343 342 341 347 349 345 348 353 348 352 353 355 4 9 12 10 10 15 15 12 7 8 11 11 358 348 348 351 353 351 347 349 350 1
334 332 335 338 342 341 342 343 344 344 344 344 344 347 351 347 351 353 354 357 2 6 13 15 16 18 18 18 14 13 11 8 10 9 9 18 29 31 29 22 15 6 11 11
336 334 337 339 342 341 341 343 345 344 346 345 347 351 353 350 352 354 357 3 10 18 18 18 22 24 18 18 20 18 20 18 21 26 29 41 37 39 37 34 33 34 35 33
339 336 340 340 342 344 343 344 346 345 347 347 349 351 355 353 351 351 3 7 15 19 18 24 26 21 20 21 19 19 19 23 28 32 38 50 45 44 50 51 52 51 52 56
340 339 341 343 345 346 343 346 346 347 348 348 349 351 356 359 352 354 4 12 16 14 21 28 24 20 24 23 20 17 22 33 33 36 44 47 45 50 55 54 58 59 58 60
344 343 343 344 346 346 345 345 348 349 350 349 349 355 353 3 1 357 358 10 12 12 26 30 25 24 26 25 21 21 31 36 43 46 47 49 52 51 49 53 54 59 66 69
344 343 343 345 345 345 344 346 349 352 351 349 349 356 354 355 5 358 358 9 10 13 22 27 23 27 29 30 24 30 37 37 47 45 46 49 48 42 49 51 48 49 62 65
344 343 342 343 344 344 343 346 350 353 351 349 350 355 356 350 358 11 15 14 16 11 21 29 27 32 36 38 35 38 40 33 40 38 43 49 49 55 53 54 54 54 51 53
345 344 340 342 343 343 345 347 350 353 352 350 349 357 352 353 358 5 10 16 12 10 20 26 28 38 41 46 48 48 52 45 46 47 46 51 54 53 52 50 49 51 53 60
348 343 340 342 342 343 345 346 351 354 353 350 348 359 352 354 357 2 0 6 14 16 27 26 31 41 45 40 40 41 42 43 45 54 49 49 51 54 55 60 63 66 69 72
347 342 340 341 339 340 341 345 353 353 354 348 349 358 351 348 357 0 1 4 13 10 19 25 32 41 41 40 37 33 30 36 50 53 51 52 54 56 55 54 57 63 65 67
346 342 341 338 337 338 341 347 352 353 351 346 349 359 351 350 356 357 358 3 12 12 17 29 37 49 45 42 39 33 33 48 54 51 51 57 55 56 56 55 58 62 64 65
340 338 338 337 336 336 342 348 351 352 351 346 349 358 352 350 346 354 -0 7 13 16 18 30 44 59 52 39 36 33 55 55 52 53 58 57 60 60 57 59 63 67 72 74
341 339 339 335 333 335 343 347 351 352 351 346 349 359 352 343 344 350 355 6 13 12 12 31 41 58 52 47 38 53 58 54 53 60 59 59 62 60 62 67 69 71 72 75